軌道要素
Epoch 2021 Dec. 12.0 TT = JDT 2459560.5
T 2021 Dec. 14.54722 TT Rudenko
q 3.9378774 (2000.0) P Q
n 0.05304382 Peri. 326.73176 -0.06194508 -0.90087468
a 7.0152990 Node 123.09140 +0.99049368 -0.10845897
e 0.4386729 Incl. 30.85151 +0.12282133 +0.42031115
P 18.6
From 1278 observations 2001 Nov. 22-2021 Jan. 29, mean residual 0".9.
|